{"data":{"norad_id":64241,"epoch":"2026-05-25T04:08:25.645056Z","epoch_age_seconds":57260,"freshness":"FRESH","line1":"1 64241U 25119J   26145.17251904  .00240800  00000+0  18221-2 0  9991","line2":"2 64241  43.0002 108.0830 0001114 208.0189 152.0619 15.70893947 57271","mean_motion":15.70893947,"eccentricity":0.0001114,"inclination_deg":43.0002,"raan_deg":108.083,"arg_perigee_deg":208.0189,"mean_anomaly_deg":152.0619,"bstar":0.0018221000000000001,"rev_number":5727,"period_min":91.667550362011,"perigee_km":355.59065452354,"apogee_km":357.09109619417,"semimajor_km":6734.4778753589,"source":"CELESTRAK","updated_at":"2026-05-25T13:38:20.352532Z"}}